Precipitable_Water
1.82 1.83 1.85 1.69 1.71 1.69 1.71 1.64 1.60 1.53 1.52 1.63 1.53 1.30 1.19 1.09 1.06 1.05 1.21 1.30 1.45 1.66 1.80 1.87 2.02 2.14 1.96 1.73 1.67 1.69 1.51 1.40 1.31 1.24 1.34 1.39 1.66 1.61 1.59 1.56 1.56 1.64 1.85
1.94 1.84 1.84 1.77 1.73 1.68 1.68 1.62 1.62 1.49 1.48 1.44 1.32 1.26 1.13 1.18 1.15 1.13 1.15 1.31 1.25 1.40 1.69 1.81 1.86 1.89 2.06 2.02 1.93 1.71 1.71 1.64 1.49 1.36 1.35 1.48 1.53 1.63 1.59 1.47 1.44 1.48 1.57
1.80 1.79 1.78 1.76 1.69 1.69 1.68 1.70 1.74 1.60 1.35 1.27 1.17 1.12 1.17 1.20 1.19 1.15 1.13 1.17 1.38 1.32 1.39 1.64 1.77 1.84 1.87 1.99 2.01 1.96 1.70 1.63 1.68 1.61 1.58 1.45 1.49 1.56 1.61 1.62 1.54 1.49 1.54
1.85 1.79 1.68 1.78 1.73 1.76 1.76 1.70 1.66 1.62 1.27 1.08 1.04 1.10 1.11 1.15 1.19 1.17 1.24 1.14 1.19 1.24 1.39 1.45 1.65 1.71 1.76 1.82 1.95 2.00 2.04 1.98 1.81 1.62 1.57 1.60 1.56 1.53 1.53 1.58 1.65 1.64 1.68
1.82 1.73 1.66 1.66 1.67 1.66 1.72 1.58 1.54 1.47 1.12 0.99 0.98 0.98 1.12 1.18 1.17 1.27 1.17 1.26 1.29 1.32 1.27 1.40 1.40 1.47 1.66 1.77 1.81 1.92 2.01 2.06 2.04 1.97 1.89 1.67 1.56 1.55 1.58 1.63 1.63 1.65 1.65
1.73 1.70 1.64 1.76 1.67 1.59 1.43 1.68 1.45 1.10 0.95 1.04 0.96 0.88 1.11 1.21 1.17 1.20 1.25 1.17 1.10 1.25 1.42 1.40 1.44 1.43 1.48 1.62 1.78 1.83 1.90 1.98 2.01 2.02 2.00 1.98 1.85 1.63 1.55 1.58 1.64 1.66 1.69
1.63 1.67 1.65 1.67 1.59 1.47 1.51 1.26 1.00 0.94 0.99 1.14 0.93 1.11 1.07 1.11 1.15 1.16 1.11 0.99 1.02 1.04 1.15 1.29 1.42 1.51 1.66 1.55 1.51 1.72 1.80 1.85 1.93 1.96 1.92 1.97 2.00 1.93 1.74 1.60 1.58 1.60 1.61
1.68 1.56 1.49 1.41 1.41 1.33 1.12 1.02 0.92 0.89 0.99 1.11 0.95 0.90 0.88 1.08 1.16 1.14 0.98 0.88 0.90 0.98 1.07 1.15 1.26 1.28 1.43 1.50 1.44 1.31 1.41 1.58 1.70 1.79 1.86 1.93 1.99 2.00 1.99 1.86 1.65 1.59 1.61
1.49 1.46 1.48 1.42 1.32 1.01 0.80 1.03 1.02 0.92 0.90 1.10 1.06 0.90 0.81 0.88 0.93 1.09 1.09 0.94 0.87 0.87 0.92 0.99 1.10 1.09 1.08 1.16 1.29 1.20 1.13 1.26 1.34 1.37 1.50 1.71 1.83 1.97 2.01 2.03 1.97 1.86 1.73
1.42 1.47 1.48 1.28 1.12 0.92 1.03 1.01 1.01 0.94 0.87 0.91 1.01 1.03 0.87 0.91 0.75 0.82 1.06 1.07 1.02 0.97 0.98 0.95 0.97 1.04 1.00 1.00 1.05 0.99 0.92 0.95 1.01 1.09 1.17 1.23 1.34 1.56 1.80 1.97 2.00 1.96 1.92
1.37 1.40 1.35 1.29 1.10 0.92 1.13 1.11 1.01 0.94 1.09 0.90 0.92 0.96 1.04 0.90 0.89 0.72 0.73 0.92 1.05 1.09 1.07 0.98 0.97 0.95 1.00 1.01 0.95 0.96 0.79 0.79 0.80 0.86 0.91 0.98 1.05 1.12 1.24 1.44 1.75 1.92 1.97
1.38 1.36 1.33 1.31 1.17 1.06 1.21 1.18 1.12 1.02 0.95 1.01 0.99 1.00 0.96 0.88 0.91 0.89 0.81 0.82 0.87 0.96 1.06 1.06 1.03 1.05 0.99 1.00 1.00 0.93 0.90 0.82 0.79 0.77 0.77 0.79 0.82 0.87 0.96 1.06 1.17 1.37 1.65
1.36 1.46 1.37 1.40 1.32 1.21 1.33 1.27 1.16 1.08 1.02 0.98 0.92 1.04 1.10 1.06 1.02 0.95 0.89 0.85 0.87 0.99 1.05 1.10 1.16 1.17 1.11 1.03 1.03 1.01 0.99 0.87 0.90 0.83 0.76 0.75 0.76 0.77 0.79 0.82 0.88 0.98 1.16
1.42 1.61 1.58 1.51 1.43 1.41 1.43 1.38 1.20 1.10 1.14 1.08 0.98 0.98 1.04 1.03 1.11 1.03 0.97 0.92 0.86 0.99 1.05 1.05 1.25 1.16 1.17 1.04 1.03 1.00 1.00 1.04 0.98 0.93 0.89 0.81 0.76 0.76 0.75 0.75 0.77 0.81 0.85
1.47 1.47 1.57 1.44 1.44 1.40 1.45 1.39 1.26 1.29 1.18 1.13 1.06 1.08 1.06 1.10 1.07 1.07 1.11 1.11 1.02 0.87 0.91 1.00 0.99 1.20 1.12 1.19 1.22 1.10 1.07 1.09 1.04 0.99 0.94 0.92 0.85 0.81 0.80 0.78 0.75 0.75 0.77
1.43 1.47 1.50 1.45 1.41 1.38 1.47 1.35 1.33 1.34 1.29 1.20 1.12 1.07 1.06 1.07 1.10 1.21 1.17 1.16 1.09 0.97 0.83 0.99 1.03 1.10 1.13 1.14 1.18 1.19 1.12 1.07 1.05 1.05 1.01 1.01 0.98 0.92 0.89 0.85 0.81 0.78 0.78
1.52 1.44 1.44 1.40 1.35 1.46 1.51 1.48 1.35 1.31 1.40 1.30 1.22 1.06 1.11 1.14 1.11 1.15 1.15 1.19 1.09 1.04 0.91 0.84 0.95 1.09 1.13 1.08 1.08 1.17 1.23 1.18 1.12 1.09 1.07 1.05 1.01 0.95 0.90 0.87 0.85 0.84 0.81
1.48 1.39 1.33 1.30 1.37 1.45 1.52 1.44 1.29 1.35 1.31 1.23 1.20 1.13 1.19 1.32 1.35 1.28 1.22 1.22 1.19 1.07 0.97 0.89 0.95 0.96 1.01 1.08 1.13 1.06 1.08 1.13 1.11 1.06 1.01 0.99 0.98 0.97 0.95 0.90 0.84 0.82 0.85
1.51 1.39 1.30 1.25 1.28 1.31 1.41 1.35 1.39 1.33 1.33 1.31 1.30 1.25 1.28 1.34 1.35 1.33 1.30 1.20 1.18 1.18 1.15 0.98 0.94 0.99 1.12 1.10 1.08 1.09 1.04 1.16 1.18 1.11 1.11 1.10 1.06 1.02 0.93 0.87 0.82 0.82 0.86
1.56 1.31 1.25 1.22 1.25 1.31 1.29 1.32 1.35 1.34 1.26 1.42 1.41 1.31 1.35 1.37 1.39 1.43 1.42 1.42 1.36 1.32 1.21 1.13 1.02 1.00 1.01 0.99 1.14 1.01 0.96 1.06 1.07 1.09 1.08 1.00 1.03 1.01 0.97 0.88 0.84 0.87 0.89
1.64 1.47 1.30 1.27 1.34 1.31 1.36 1.33 1.34 1.36 1.19 1.40 1.36 1.33 1.39 1.41 1.46 1.48 1.47 1.42 1.47 1.36 1.30 1.16 0.97 0.92 0.91 0.94 0.94 0.99 0.98 1.04 1.06 1.10 0.93 0.98 1.01 0.94 0.87 0.80 0.87 0.94 0.96
1.78 1.68 1.49 1.38 1.33 1.34 1.36 1.42 1.46 1.32 1.25 1.34 1.35 1.38 1.41 1.52 1.47 1.40 1.38 1.45 1.52 1.43 1.31 1.16 1.00 0.87 0.90 0.96 1.00 0.98 0.96 0.88 0.75 0.98 0.94 0.86 0.87 0.76 0.77 0.80 0.88 0.89 0.83
1.77 1.62 1.45 1.35 1.39 1.46 1.48 1.41 1.42 1.30 1.33 1.40 1.43 1.42 1.41 1.45 1.36 1.36 1.43 1.48 1.45 1.47 1.41 1.19 1.02 0.95 0.93 0.95 0.94 0.88 0.87 0.86 0.77 0.83 0.84 0.74 0.86 0.83 0.89 0.88 0.91 0.83 0.78
1.55 1.56 1.52 1.43 1.48 1.53 1.49 1.44 1.44 1.37 1.34 1.33 1.40 1.45 1.45 1.44 1.48 1.43 1.41 1.39 1.42 1.44 1.37 1.25 1.13 1.01 0.98 0.97 0.93 0.91 0.87 0.82 0.74 0.76 0.88 0.72 0.90 0.82 0.91 0.98 0.83 0.77 0.76
1.53 1.45 1.56 1.50 1.52 1.57 1.57 1.54 1.55 1.42 1.43 1.43 1.43 1.48 1.48 1.44 1.42 1.37 1.34 1.29 1.25 1.26 1.27 1.14 1.02 0.97 0.95 0.91 0.94 0.81 0.67 0.63 0.62 0.71 0.83 0.81 0.82 0.79 0.82 0.73 0.76 0.89 1.00
1.57 1.58 1.53 1.57 1.63 1.61 1.65 1.61 1.58 1.45 1.41 1.42 1.53 1.53 1.45 1.34 1.33 1.34 1.30 1.17 1.08 1.06 1.04 0.98 1.01 0.95 0.95 0.99 0.85 0.86 0.86 0.81 0.73 0.70 0.82 0.75 0.70 0.67 0.65 0.87 0.97 1.06 1.21
Wind_Speed
1 1 2 3 4 4 5 6 6 7 8 8 9 10 10 10 9 7 6 5 5 5 6 7 8 9 8 8 10 10 10 9 9 8 8 7 7 7 7 7 7 6 5
2 4 4 4 4 5 5 6 7 8 8 9 9 10 10 9 9 7 6 6 5 5 6 7 8 8 10 10 10 12 12 12 10 10 9 9 8 8 8 8 8 8 7
5 5 5 5 5 6 7 7 7 8 9 9 10 10 10 9 8 8 6 6 5 5 5 7 8 8 9 10 11 10 12 13 13 12 12 11 11 10 9 9 9 10 10
5 5 6 6 6 7 8 8 9 8 10 10 11 10 10 9 9 7 6 6 6 5 6 6 7 9 9 10 10 12 13 13 14 13 13 13 13 12 12 11 11 11 11
7 7 7 8 9 9 9 10 9 10 11 11 10 10 9 8 8 6 6 5 6 5 5 6 7 9 10 10 11 11 12 13 16 16 16 15 15 15 15 14 13 13 12
9 8 9 9 10 9 10 9 10 12 12 10 10 9 8 7 7 7 6 6 6 6 6 7 7 8 9 10 11 12 13 14 15 15 20 18 18 17 17 17 16 16 15
9 9 10 10 9 10 9 12 12 11 10 8 9 8 7 7 6 6 6 7 8 7 7 7 7 7 7 8 10 11 12 13 15 17 18 20 21 20 20 19 19 19 18
10 10 11 11 10 9 11 11 10 10 9 8 8 8 7 7 7 5 8 8 8 8 7 7 8 9 8 9 9 10 12 13 14 15 16 18 20 23 22 22 22 22 21
10 10 10 9 8 10 10 9 9 9 9 9 8 7 7 7 8 8 8 8 10 9 9 8 9 9 10 11 11 11 12 13 15 16 18 19 19 20 23 24 24 24 24
9 9 8 8 9 10 9 10 10 10 9 9 9 8 9 10 10 8 9 9 10 9 10 10 10 10 11 11 12 13 13 14 15 16 17 19 21 22 24 25 27 26 27
8 8 8 8 9 10 10 11 11 10 10 11 10 11 10 11 10 11 11 10 12 11 11 12 12 12 12 13 13 14 15 16 17 18 18 19 21 22 23 26 28 29 29
8 8 8 8 10 10 11 12 12 12 12 12 12 12 12 12 12 12 13 14 14 14 13 14 14 13 13 14 15 16 17 18 19 20 21 22 22 23 24 25 27 29 32
9 9 10 10 11 12 12 13 13 13 13 13 13 13 13 14 14 15 15 15 15 15 15 15 15 15 16 16 16 18 19 21 21 22 23 25 25 26 26 27 28 29 30
10 10 12 12 14 14 14 15 14 14 14 14 14 15 15 15 16 16 16 16 16 17 17 17 17 18 17 17 19 21 21 22 23 24 26 27 28 29 29 29 30 30 30
12 13 12 14 16 17 17 17 17 17 17 16 17 16 17 16 17 17 17 16 17 18 19 19 19 19 20 21 19 23 25 25 26 27 29 30 30 31 32 32 33 33 33
14 12 14 16 16 17 19 22 21 19 19 19 19 18 18 17 18 19 18 18 18 18 19 20 21 22 23 25 27 27 28 29 31 32 33 32 33 33 34 35 35 36 36
16 17 17 18 18 19 23 25 23 21 21 20 20 20 19 19 19 19 18 18 18 18 20 21 23 25 27 29 30 29 31 32 33 34 34 34 34 36 36 37 37 37 38
20 20 20 20 21 20 19 18 18 22 23 22 22 21 21 20 20 20 19 21 21 23 24 25 26 28 28 29 29 31 33 34 34 33 34 33 35 36 36 37 37 38 39
23 23 23 22 22 22 21 21 22 23 24 24 23 23 22 22 22 22 22 23 24 25 25 28 28 29 30 30 32 32 34 33 34 34 35 35 36 36 37 39 39 39 39
25 25 25 25 25 24 24 24 25 23 23 24 24 24 24 24 23 24 25 26 27 27 28 29 30 30 30 32 33 34 34 33 35 34 34 36 37 38 38 38 40 40 40
27 27 27 27 26 27 28 28 28 25 24 24 23 25 25 25 26 27 27 29 30 30 30 31 32 32 32 33 35 36 35 34 34 34 36 36 35 35 35 36 36 37 39
28 28 28 28 29 30 30 30 29 27 25 25 25 25 26 26 27 28 30 30 31 31 31 31 32 33 35 36 35 35 35 36 37 36 37 38 37 36 36 35 34 35 38
27 28 29 29 30 32 31 30 29 26 25 25 25 25 25 26 27 29 29 30 30 31 33 33 34 35 36 35 36 37 37 38 38 38 39 38 35 35 33 35 36 38 42
26 28 29 30 32 31 31 29 28 27 27 26 26 27 28 28 28 29 29 33 33 34 33 35 35 36 36 36 36 36 37 38 37 35 34 35 34 35 34 36 39 43 49
27 28 29 31 31 30 29 28 27 27 27 27 27 28 27 27 29 33 35 32 31 32 33 35 35 35 36 36 34 34 34 34 33 32 31 33 33 34 36 38 41 45 51
26 27 28 29 28 29 29 27 26 26 27 27 28 27 29 31 32 33 31 30 31 33 33 34 34 36 35 33 33 33 32 31 32 31 29 30 33 34 36 37 41 46 44
Wind_Direction
239 281 335 334 350 344 354 348 349 347 344 345 342 340 341 338 335 324 311 305 302 274 256 248 247 245 245 238 236 239 237 236 239 236 237 238 239 239 236 237 238 239 243
259 270 296 311 319 327 331 337 339 336 335 340 337 339 338 339 340 333 319 308 298 281 266 257 256 254 248 249 249 247 237 237 238 241 239 239 242 241 239 242 242 241 243
260 275 289 299 304 310 315 316 324 328 335 331 333 334 335 337 337 333 326 319 304 290 274 263 258 260 259 258 255 250 241 239 241 243 244 244 244 244 244 246 247 245 243
255 273 284 291 300 304 305 310 313 320 324 325 324 328 331 333 335 337 332 328 317 304 284 269 265 264 265 261 258 254 252 244 243 245 248 248 247 247 248 249 249 248 245
261 272 281 289 296 299 301 302 304 310 317 319 318 320 325 331 334 338 335 336 333 322 317 280 280 275 268 266 263 261 256 254 248 248 250 251 250 250 250 250 249 250 249
267 271 281 287 292 295 300 296 304 308 308 311 316 314 318 324 328 330 334 338 329 321 313 306 298 278 276 275 269 264 262 262 259 257 249 252 252 252 251 251 251 250 249
267 273 282 286 290 293 294 300 302 302 305 306 312 305 304 317 319 318 327 327 331 323 313 312 307 303 291 284 275 271 268 268 266 263 258 256 252 253 252 252 251 251 250
268 275 282 285 286 292 297 301 301 302 298 299 303 303 302 296 306 313 318 323 321 323 319 314 306 297 294 294 290 282 276 273 272 270 269 266 260 253 253 253 252 251 251
269 275 280 280 288 294 295 299 300 300 295 293 302 298 296 310 301 295 301 310 316 313 313 311 308 304 296 293 286 289 286 281 278 274 270 270 267 262 256 254 253 252 251
264 269 274 283 290 294 292 297 299 297 291 290 292 290 289 291 297 300 293 296 308 306 310 306 307 302 301 298 295 292 290 287 284 280 277 272 270 267 262 258 255 254 253
262 267 276 284 295 297 290 291 295 291 291 288 287 287 285 284 284 288 295 292 298 294 297 301 301 300 298 298 297 295 296 293 289 285 283 280 275 271 267 263 258 255 253
262 264 274 285 296 299 296 295 290 288 286 288 285 283 283 284 284 287 288 292 290 290 291 295 293 293 296 294 295 294 297 295 290 288 285 281 279 275 271 268 264 259 255
259 262 272 283 294 298 296 296 292 286 284 285 283 283 281 281 282 285 287 289 289 289 290 289 293 290 292 292 293 295 296 294 291 291 288 284 280 277 273 271 268 264 259
264 272 277 284 294 295 295 293 290 287 284 284 284 283 283 282 281 283 284 287 289 286 290 289 287 292 287 290 290 295 298 294 291 290 289 288 281 278 274 272 269 266 263
264 275 284 287 292 297 293 290 287 283 284 283 283 283 281 282 282 283 284 286 286 285 287 287 290 285 289 289 287 294 295 295 291 291 289 287 281 278 274 272 269 267 263
267 272 281 289 300 291 298 290 282 279 281 282 280 282 280 281 282 282 284 284 284 285 289 290 289 288 289 289 289 290 294 292 291 290 288 285 282 279 276 273 271 266 263
267 275 280 285 292 299 298 302 272 276 279 280 279 279 278 279 283 284 281 284 286 285 290 290 292 291 292 291 289 289 291 293 293 290 288 284 281 280 278 274 271 267 262
266 272 280 283 284 292 308 317 284 280 276 277 277 277 276 277 279 282 281 281 283 287 287 288 293 294 293 293 291 290 291 293 293 291 289 285 283 280 277 275 272 267 262
266 271 277 280 281 285 290 300 304 285 274 274 273 275 275 276 280 282 283 284 286 288 289 292 295 297 293 293 294 294 295 292 292 292 288 285 283 280 279 276 272 268 262
268 271 273 276 280 282 286 293 296 289 275 273 272 273 274 276 279 282 284 285 287 287 290 291 294 297 296 295 292 295 295 292 292 292 290 289 286 282 278 277 271 267 262
270 272 272 274 278 281 283 288 292 287 275 273 274 273 274 277 279 283 285 287 287 287 290 292 294 297 298 298 297 295 293 294 293 292 291 289 287 284 282 281 274 267 264
272 272 272 275 281 281 283 285 288 282 272 272 271 274 275 277 279 284 287 288 286 285 287 293 295 298 298 298 296 294 293 294 293 292 290 289 287 283 282 280 276 272 270
274 274 274 275 282 284 283 283 282 276 273 273 271 274 277 281 283 288 288 287 289 286 286 290 294 296 297 298 296 294 293 294 293 293 291 290 287 283 283 280 277 276 276
275 275 278 279 286 284 283 281 277 271 272 272 272 275 276 281 283 288 291 293 289 288 287 292 292 294 296 298 296 296 295 294 294 294 291 290 288 284 285 283 283 282 283
278 279 280 282 284 283 283 279 274 269 270 270 273 275 277 281 286 289 290 290 292 291 292 293 293 295 296 297 296 297 298 297 297 297 296 291 289 288 288 288 289 289 289
280 284 281 284 282 282 283 276 270 268 270 269 274 276 279 284 289 290 290 292 292 294 294 294 294 296 296 295 294 294 295 296 299 299 299 297 294 294 293 294 297 298 293